User: anonymous   Login
Location: Rumah Long Bangan
(2.8362°N, 113.7519°E)
Time: 05:11:16
(UTC+00:00)
Language:

Sea Lan Dem Rocket - Orbit

View from above orbital plane
View from above orbital plane
View from above satellite
View from above satellite

Ground track
Ground track

The orbit data is extracted from the following two-line orbital elements,

1 25662U 99014B   22021.47249412 -.00000145  00000-0 -42054-3 0  9994
2 25662   0.7912 128.8417 7187724 349.9262 274.6502  2.24304100187046
Epoch (UTC): 21 January 2022 11:20:23
Eccentricity: 0.7187724
inclination: 0.7912°
perigee height: 554 km
apogee height: 35992 km
right ascension of ascending node: 128.8417°
argument of perigee: 349.9262°
revolutions per day: 2.24304100
mean anomaly at epoch: 274.6502°
orbit number at epoch: 18704

The dashed part of the orbit path shows where the satellite is in the earth's shadow,  

DLR